Papa, Hungary

9:29 AM CET on January 17, 2018 (GMT +0100)
Papa

Weather History for LHPA - October, 2013

Change the Weather History Date:

Wednesday, October 2, 2013

  Actual Average Record
Temperature  
Mean Temperature 47 °F -  
Max Temperature 53 °F - - ()
Min Temperature 41 °F - - ()
Degree Days  
Heating Degree Days 18    
Moisture  
Dew Point 39 °F    
Average Humidity 77    
Maximum Humidity 93    
Minimum Humidity 47    
Precipitation  
Precipitation 0.00 in - - ()
Sea Level Pressure  
Sea Level Pressure 30.10 in    
Wind  
Wind Speed 3 mph ()    
Max Wind Speed 11 mph    
Max Gust Speed -    
Visibility 6.2 miles    
Events      
T = Trace of Precipitation, MM = Missing Value Source: Averaged Metar Reports

Daily Weather History Graph

Daily Weather History Graph

Search for Another Location

Airport or City:

Trip Planner

Search our weather history database for the weather conditions in past years. The results will help you decide how hot, cold, wet, or windy it might be!

Date:

Astronomy

Oct. 02, 2013 Rise Set
Actual Time 6:50 AM CEST 6:27 PM CEST
Civil Twilight 6:19 AM CEST 6:58 PM CEST
Nautical Twilight 5:44 AM CEST 7:33 PM CEST
Astronomical Twilight 5:08 AM CEST 8:09 PM CEST
Moon 3:56 AM CEST (10/2) 5:00 PM CEST (10/2)
Length of Visible Light 12h 38m
Length of Day
11h 37m
Waning Crescent, 7% of the Moon is Illuminated
Oct 2
Waning Crescent
Oct 5
New
Oct 12
First Quarter
Oct 19
Full
Oct 27
Last Quarter

Hourly Weather History & Observations

Time (CEST) Temp. Windchill Dew Point Humidity Pressure Visibility Wind Dir Wind Speed Gust Speed Precip Events Conditions
12:15 AM 44.6 °F - 41.0 °F 87% 29.98 in - West 2.2 mph - N/A   Clear
12:45 AM 44.6 °F - 41.0 °F 87% 29.98 in - NW 2.2 mph - N/A   Clear
1:15 AM 44.6 °F 42.3 °F 41.0 °F 87% 29.98 in - WNW 4.5 mph - N/A   Clear
1:45 AM 42.8 °F 40.2 °F 39.2 °F 87% 30.01 in - NW 4.5 mph - N/A   Clear
2:15 AM 41.0 °F - 39.2 °F 93% 30.01 in - NW 2.2 mph - N/A   Clear
2:45 AM 42.8 °F - 39.2 °F 87% 30.01 in - Calm Calm - N/A   Clear
3:15 AM 42.8 °F - 39.2 °F 87% 30.01 in - Calm Calm - N/A   Clear
3:45 AM 41.0 °F - 37.4 °F 87% 30.01 in - NW 2.2 mph - N/A   Clear
4:15 AM 41.0 °F 38.1 °F 37.4 °F 87% 30.01 in - NW 4.5 mph - N/A   Clear
4:45 AM 42.8 °F - 37.4 °F 81% 30.04 in 6.2 mi Calm Calm - N/A   Mostly Cloudy
5:15 AM 42.8 °F - 37.4 °F 81% 30.04 in 6.2 mi NNW 2.2 mph - N/A   Mostly Cloudy
5:45 AM 42.8 °F 40.2 °F 37.4 °F 81% 30.04 in 6.2 mi WNW 4.5 mph - N/A   Mostly Cloudy
6:15 AM 42.8 °F 40.2 °F 37.4 °F 81% 30.04 in 6.2 mi NW 4.5 mph - N/A   Mostly Cloudy
6:45 AM 42.8 °F 40.2 °F 37.4 °F 81% 30.06 in 6.2 mi NW 4.5 mph - N/A   Mostly Cloudy
7:15 AM 41.0 °F - 37.4 °F 87% 30.06 in 6.2 mi NW 2.2 mph - N/A   Mostly Cloudy
7:45 AM 41.0 °F 38.1 °F 37.4 °F 87% 30.06 in - NW 4.5 mph - N/A   Clear
8:15 AM 41.0 °F - 39.2 °F 93% 30.09 in - NW 2.2 mph - N/A   Clear
8:45 AM 41.0 °F 38.1 °F 37.4 °F 87% 30.09 in - NNW 4.5 mph - N/A   Clear
9:15 AM 42.8 °F 40.2 °F 39.2 °F 87% 30.12 in 6.2 mi North 4.5 mph - N/A   Mostly Cloudy
9:45 AM 42.8 °F 40.2 °F 39.2 °F 87% 30.12 in 6.2 mi North 4.5 mph - N/A   Mostly Cloudy
10:15 AM 42.8 °F - 39.2 °F 87% 30.12 in 6.2 mi North 2.2 mph - N/A   Mostly Cloudy
10:45 AM 44.6 °F 40.8 °F 39.2 °F 81% 30.15 in 6.2 mi North 6.7 mph - N/A   Mostly Cloudy
11:15 AM 44.6 °F 42.3 °F 41.0 °F 87% 30.15 in - NNW 4.5 mph - N/A   Clear
11:45 AM 46.4 °F 43.0 °F 41.0 °F 81% 30.15 in - NNW 6.7 mph - N/A   Clear
12:15 PM 50.0 °F - 42.8 °F 76% 30.15 in 6.2 mi North 4.5 mph - N/A   Mostly Cloudy
12:45 PM 51.8 °F - 42.8 °F 71% 30.15 in 6.2 mi North 4.5 mph - N/A   Mostly Cloudy
1:15 PM 53.6 °F - 42.8 °F 67% 30.15 in 6.2 mi North 6.7 mph - N/A   Mostly Cloudy
1:45 PM 51.8 °F - 41.0 °F 67% 30.15 in 6.2 mi North 6.7 mph - N/A   Mostly Cloudy
2:15 PM 51.8 °F - 42.8 °F 71% 30.15 in 6.2 mi NNW 11.2 mph - N/A   Mostly Cloudy
2:45 PM 53.6 °F - 42.8 °F 67% 30.18 in 6.2 mi North 11.2 mph - N/A   Mostly Cloudy
3:15 PM 53.6 °F - 41.0 °F 62% 30.18 in 6.2 mi North 11.2 mph - N/A   Mostly Cloudy
3:45 PM 53.6 °F - 37.4 °F 54% 30.18 in 6.2 mi North 8.9 mph - N/A   Mostly Cloudy
4:15 PM 53.6 °F - 33.8 °F 47% 30.18 in 6.2 mi NE 6.7 mph - N/A   Mostly Cloudy
4:45 PM 51.8 °F - 35.6 °F 54% 30.18 in 6.2 mi ENE 6.7 mph - N/A   Mostly Cloudy
5:15 PM 51.8 °F - 33.8 °F 50% 30.18 in - NE 4.5 mph - N/A   Clear
5:45 PM 51.8 °F - 33.8 °F 50% 30.21 in - NE 2.2 mph - N/A   Clear
6:15 PM 50.0 °F - 37.4 °F 62% 30.21 in - North 2.2 mph - N/A   Clear
6:45 PM 48.2 °F - 41.0 °F 76% 30.21 in - ENE 2.2 mph - N/A   Clear
7:15 PM 46.4 °F - 41.0 °F 81% 30.24 in - NW 2.2 mph - N/A   Clear